Daichi

operational
NORAD ID: 28931 Int'l Des: 2006-002 Owner: JAXA Country: J
LEOCIRCULARRETROGRADESSO

About Daichi

Description loading...

Live Position

Loading 3D Globe...

Upcoming Passes

Altitude History

Altitude vs Time

uPlot chart will show altitude changes over time

Two-Line Element Set

1 28931U 06002A 26061.62711135 .00001756 00000-0 30250-3 0 9994
2 28931 98.1205 17.6187 0001208 51.6511 308.4803 14.69782255 72442
Epoch: Mar 2, 2026 • Age: 29 hours

Current Status

Altitude 665.4 km
Velocity 7.52 km/s
Sub-Earth Point -0.73°S, 37.01°W
Launch Date Jan 24, 2006
Age 20.1 years
Type other

Technical Details

Classification Payload
Mass 4000.00 kg
Dry Mass 3800.00 kg
Total Mass 4000.00 kg
Length 6.50 m
Diameter 4.50 m
Span 28.00 m
Shape Box + 2 Pan
Manufacturer TSUK/NECTF
Bus Type ALOS
Phase Status In Orbit
Owner/State JAXA/J

Large Constellations

Loading constellations...